When you browse on this site, cookies collect data to enhance your experience and personalize the content and advertising you see.
Visit our Privacy Policy to learn more. By continuing to use the site, you agree to this use of cookies and data.
  • In Lithuania
  • List of Countries
  • For 7 days
  • Water Temperature
  • Weather Map
  • Weather Widgets
  • user-avatar
    Login

    Hourly Weather Krasnyy

    Today, 17 August, Saturday

    Time Temperature Precipitation Wind Pressure Humidity
    00:00 +26°C° 0 mm 1 mps 747 mmHg 56%
    01:00 +26°C° 0 mm 1 mps 747 mmHg 59%
    02:00 +25°C° 0 mm 1 mps 747 mmHg 61%
    03:00 +25°C° 0 mm 2 mps 747 mmHg 57%
    04:00 +25°C° 0.3 mm 2 mps 747 mmHg 60%
    05:00 +24°C° 0.3 mm 3 mps 747 mmHg 63%
    06:00 +22°C° 0.3 mm 3 mps 747 mmHg 67%
    07:00 +22°C° 0.6 mm 3 mps 747 mmHg 70%
    08:00 +22°C° 0.6 mm 4 mps 748 mmHg 73%
    09:00 +22°C° 0.6 mm 4 mps 748 mmHg 76%
    10:00 +24°C° 0 mm 3 mps 748 mmHg 74%
    11:00 +24°C° 0 mm 3 mps 748 mmHg 71%
    12:00 +25°C° 0 mm 2 mps 748 mmHg 69%
    13:00 +26°C° 0 mm 2 mps 748 mmHg 64%
    14:00 +27°C° 0 mm 3 mps 748 mmHg 59%
    15:00 +28°C° 0 mm 3 mps 748 mmHg 54%
    16:00 +28°C° 0 mm 3 mps 748 mmHg 54%
    17:00 +28°C° 0 mm 3 mps 748 mmHg 54%
    18:00 +28°C° 0 mm 3 mps 748 mmHg 54%
    19:00 +27°C° 0 mm 3 mps 749 mmHg 61%
    20:00 +25°C° 0 mm 3 mps 749 mmHg 68%
    21:00 +24°C° 0 mm 3 mps 749 mmHg 75%
    22:00 +24°C° 0 mm 2 mps 749 mmHg 76%
    23:00 +23°C° 0 mm 2 mps 749 mmHg 77%

    Tomorrow, 18 August, Sunday

    Time Temperature Precipitation Wind Pressure Humidity
    00:00 +23°C° 0 mm 2 mps 749 mmHg 78%
    01:00 +21°C° 0 mm 2 mps 749 mmHg 79%
    02:00 +21°C° 0 mm 2 mps 749 mmHg 80%
    03:00 +21°C° 0 mm 1 mps 749 mmHg 82%
    04:00 +21°C° 0 mm 1 mps 749 mmHg 83%
    05:00 +21°C° 0 mm 1 mps 749 mmHg 84%
    06:00 +21°C° 0 mm 1 mps 750 mmHg 85%
    07:00 +23°C° 0 mm 1 mps 750 mmHg 77%
    08:00 +25°C° 0 mm 1 mps 750 mmHg 69%
    09:00 +27°C° 0 mm 1 mps 750 mmHg 60%
    10:00 +29°C° 0 mm 1 mps 750 mmHg 53%
    11:00 +30°C° 0 mm 1 mps 750 mmHg 46%
    12:00 +30°C° 0 mm 0 mps 750 mmHg 38%
    13:00 +32°C° 0 mm 1 mps 750 mmHg 38%
    14:00 +32°C° 0 mm 1 mps 750 mmHg 38%
    15:00 +32°C° 0 mm 2 mps 750 mmHg 38%
    16:00 +31°C° 0.1 mm 2 mps 750 mmHg 40%
    17:00 +31°C° 0.1 mm 2 mps 750 mmHg 43%
    18:00 +30°C° 0.1 mm 3 mps 750 mmHg 45%
    19:00 +29°C° 0.3 mm 3 mps 750 mmHg 51%
    20:00 +28°C° 0.3 mm 3 mps 751 mmHg 56%
    21:00 +26°C° 0.3 mm 3 mps 751 mmHg 62%
    22:00 +26°C° 0.3 mm 3 mps 751 mmHg 65%
    23:00 +25°C° 0.3 mm 4 mps 751 mmHg 69%

    Day after tomorrow, 19 August, Monday

    Time Temperature Precipitation Wind Pressure Humidity
    00:00 +23°C° 0.3 mm 4 mps 751 mmHg 72%
    01:00 +22°C° 0.2 mm 4 mps 752 mmHg 72%
    02:00 +22°C° 0.2 mm 4 mps 752 mmHg 72%
    03:00 +22°C° 0.2 mm 4 mps 752 mmHg 72%
    04:00 +21°C° 0 mm 4 mps 752 mmHg 73%
    05:00 +21°C° 0 mm 4 mps 752 mmHg 73%
    06:00 +21°C° 0 mm 4 mps 752 mmHg 73%
    07:00 +22°C° 0.1 mm 4 mps 753 mmHg 71%
    08:00 +23°C° 0.1 mm 4 mps 753 mmHg 68%
    09:00 +25°C° 0.1 mm 4 mps 754 mmHg 65%
    10:00 +27°C° 0 mm 3 mps 753 mmHg 58%
    11:00 +29°C° 0 mm 3 mps 753 mmHg 51%
    12:00 +31°C° 0 mm 3 mps 753 mmHg 45%
    13:00 +33°C° 0 mm 3 mps 753 mmHg 41%
    14:00 +34°C° 0 mm 3 mps 753 mmHg 38%
    15:00 +36°C° 0 mm 3 mps 753 mmHg 35%
    16:00 +35°C° 0 mm 3 mps 753 mmHg 37%
    17:00 +35°C° 0 mm 4 mps 753 mmHg 38%
    18:00 +35°C° 0 mm 4 mps 753 mmHg 39%
    19:00 +33°C° 0 mm 4 mps 753 mmHg 44%
    20:00 +30°C° 0 mm 4 mps 753 mmHg 50%
    21:00 +28°C° 0 mm 4 mps 753 mmHg 56%
    22:00 +27°C° 0 mm 4 mps 753 mmHg 58%
    23:00 +26°C° 0 mm 3 mps 753 mmHg 59%

    20 August, Tuesday

    Time Temperature Precipitation Wind Pressure Humidity
    00:00 +26°C° 0 mm 3 mps 753 mmHg 61%
    01:00 +25°C° 0 mm 2 mps 753 mmHg 58%
    02:00 +25°C° 0 mm 2 mps 753 mmHg 55%
    03:00 +25°C° 0 mm 2 mps 753 mmHg 52%
    04:00 +25°C° 0 mm 2 mps 753 mmHg 50%
    05:00 +25°C° 0 mm 2 mps 753 mmHg 48%
    06:00 +24°C° 0 mm 1 mps 753 mmHg 46%
    07:00 +27°C° 0 mm 2 mps 753 mmHg 41%
    08:00 +29°C° 0 mm 2 mps 753 mmHg 36%
    09:00 +31°C° 0 mm 2 mps 754 mmHg 30%
    10:00 +34°C° 0 mm 2 mps 754 mmHg 27%
    11:00 +36°C° 0 mm 2 mps 754 mmHg 24%
    12:00 +38°C° 0 mm 3 mps 754 mmHg 21%
    13:00 +38°C° 0 mm 3 mps 753 mmHg 20%
    14:00 +39°C° 0 mm 3 mps 753 mmHg 20%
    15:00 +40°C° 0 mm 3 mps 753 mmHg 19%
    16:00 +40°C° 0 mm 4 mps 753 mmHg 20%
    17:00 +40°C° 0 mm 4 mps 753 mmHg 21%
    18:00 +38°C° 0 mm 4 mps 752 mmHg 22%
    19:00 +36°C° 0 mm 4 mps 753 mmHg 26%
    20:00 +34°C° 0 mm 4 mps 753 mmHg 30%
    21:00 +32°C° 0 mm 4 mps 753 mmHg 35%
    22:00 +30°C° 0 mm 4 mps 753 mmHg 36%
    23:00 +29°C° 0 mm 4 mps 752 mmHg 38%

    21 August, Wednesday

    Time Temperature Precipitation Wind Pressure Humidity
    00:00 +29°C° 0 mm 4 mps 752 mmHg 39%
    01:00 +28°C° 0 mm 4 mps 752 mmHg 39%
    02:00 +27°C° 0 mm 4 mps 752 mmHg 38%
    03:00 +27°C° 0 mm 4 mps 752 mmHg 38%
    04:00 +26°C° 0 mm 3 mps 752 mmHg 38%
    05:00 +26°C° 0 mm 3 mps 752 mmHg 37%
    06:00 +25°C° 0 mm 3 mps 752 mmHg 37%
    07:00 +28°C° 0 mm 4 mps 752 mmHg 33%
    08:00 +30°C° 0 mm 4 mps 753 mmHg 29%
    09:00 +33°C° 0 mm 4 mps 753 mmHg 25%
    10:00 +35°C° 0 mm 5 mps 753 mmHg 22%
    11:00 +37°C° 0 mm 5 mps 752 mmHg 18%
    12:00 +40°C° 0 mm 6 mps 752 mmHg 15%
    13:00 +41°C° 0 mm 6 mps 752 mmHg 14%
    14:00 +41°C° 0 mm 6 mps 752 mmHg 14%
    15:00 +42°C° 0 mm 6 mps 751 mmHg 14%
    16:00 +41°C° 0 mm 5 mps 751 mmHg 14%
    17:00 +41°C° 0 mm 5 mps 751 mmHg 15%
    18:00 +40°C° 0 mm 5 mps 751 mmHg 15%
    19:00 +37°C° 0 mm 5 mps 751 mmHg 18%
    20:00 +35°C° 0 mm 4 mps 751 mmHg 20%
    21:00 +33°C° 0 mm 4 mps 751 mmHg 22%
    22:00 +32°C° 0 mm 4 mps 751 mmHg 22%
    23:00 +30°C° 0 mm 4 mps 751 mmHg 23%

    22 August, Thursday

    Time Temperature Precipitation Wind Pressure Humidity
    00:00 +30°C° 0 mm 4 mps 751 mmHg 23%
    01:00 +29°C° 0 mm 4 mps 751 mmHg 25%
    02:00 +28°C° 0 mm 4 mps 751 mmHg 26%
    03:00 +27°C° 0 mm 4 mps 751 mmHg 27%
    04:00 +27°C° 0 mm 3 mps 751 mmHg 28%
    05:00 +26°C° 0 mm 3 mps 751 mmHg 29%
    06:00 +26°C° 0 mm 3 mps 751 mmHg 30%
    07:00 +28°C° 0 mm 4 mps 752 mmHg 27%
    08:00 +32°C° 0 mm 4 mps 752 mmHg 24%
    09:00 +35°C° 0 mm 5 mps 752 mmHg 21%
    10:00 +36°C° 0 mm 5 mps 752 mmHg 20%
    11:00 +39°C° 0 mm 6 mps 752 mmHg 18%
    12:00 +41°C° 0 mm 6 mps 752 mmHg 16%
    13:00 +41°C° 0 mm 6 mps 751 mmHg 16%
    14:00 +42°C° 0 mm 6 mps 751 mmHg 15%
    15:00 +43°C° 0 mm 7 mps 751 mmHg 14%
    16:00 +42°C° 0 mm 6 mps 750 mmHg 15%
    17:00 +41°C° 0 mm 6 mps 750 mmHg 16%
    18:00 +40°C° 0 mm 5 mps 750 mmHg 16%
    19:00 +39°C° 0 mm 5 mps 750 mmHg 18%
    20:00 +36°C° 0 mm 5 mps 750 mmHg 20%
    21:00 +34°C° 0 mm 4 mps 750 mmHg 22%
    22:00 +33°C° 0 mm 4 mps 751 mmHg 23%
    23:00 +32°C° 0 mm 4 mps 751 mmHg 25%
    Show more